Flag for Canada Weather past 2 weeks in Barrie, Ontario, Canada

Now
32 °F

Overcast.


Feels Like: 24 °F
Forecast: 18 / 31 °F
Wind: 9 mph from West

Location: Borden

Current Time: Mar 27, 2015 at 2:09:08 AM

Latest Report: Mar 27, 2015 at 1:00 AM


Visibility: 9 mi

Pressure: 29.81 "Hg

Humidity: 87%

Dew point: 28 °F

Location of BarrieLocation

Historic Weather in Barrie — Graph

°F

Barrie temperature yesterday

Maximum temperature yesterday: 41 °F (at 3:00 PM)
Minimum temperature yesterday: 34 °F (at 8:00 PM)
Average temperature yesterday: 38 °F

Past Weeks' High & Low Weather Summary

 TemperatureHumidityPressure
High55 °F (Mar 16, 3:00 PM)100% (Mar 14, 4:00 AM)30.66 "Hg (Mar 14, 4:00 AM)
Low3 °F (Mar 24, 2:00 AM)21% (Mar 20, 4:00 PM)29.68 "Hg (Mar 17, 1:03 AM)
Average30 °F69%30.12 "Hg
* Reported Midnight between Mar 11 and Mar 12 — Mar 27 12:51 AM, Barrie, Weather by CustomWeather, © 2015

Note: Actual official high and low records may vary slightly from our data, if they occured in-between our weather recording intervals... More about our weather records

Advertising

Barrie weather history for previous 24 hours

 ConditionsComfort  
Time TempWeatherWind HumidityBarometerVisibility
12:51 AM
Fri, Mar 27
32 °FMostly cloudy.6 mph87%29.79 "Hg9 mi
12:00 AM34 °FOvercast.6 mph81%29.82 "Hg9 mi
10:46 PM
Thu, Mar 26
34 °FPassing clouds.3 mph81%29.80 "Hg9 mi
10:00 PM34 °FOvercast.5 mph81%29.84 "Hg9 mi
9:00 PM34 °FOvercast.3 mph87%29.83 "Hg9 mi
8:00 PM34 °FOvercast.No wind87%29.82 "Hg9 mi
7:02 PM36 °FMostly cloudy.5 mph81%29.79 "Hg9 mi
6:03 PM39 °FMostly cloudy.8 mph70%29.77 "Hg9 mi
5:00 PM39 °FMostly cloudy.9 mph75%29.77 "Hg9 mi
4:00 PM41 °FOvercast.9 mph66%29.77 "Hg9 mi
3:00 PM41 °FPartly sunny.3 mph66%29.77 "Hg9 mi
2:00 PM39 °FOvercast.5 mph70%29.78 "Hg9 mi
1:00 PM39 °FOvercast.3 mph70%29.80 "Hg9 mi
12:00 PM39 °FMostly cloudy.3 mph70%29.81 "Hg9 mi
11:57 AM39 °FMostly cloudy.No wind75%29.79 "Hg9 mi
11:00 AM39 °FPassing clouds.6 mph75%29.82 "Hg9 mi
10:00 AM37 °FPartly sunny.8 mph81%29.85 "Hg9 mi
9:00 AM37 °FPassing clouds.5 mph81%29.86 "Hg9 mi
8:00 AM36 °FClear.2 mph81%29.84 "Hg9 mi
7:00 AM36 °FClear.6 mph81%29.86 "Hg9 mi
6:00 AM37 °FOvercast.5 mph81%29.88 "Hg9 mi
5:00 AM37 °FOvercast.3 mph81%29.90 "Hg9 mi
4:00 AM37 °FOvercast.5 mph81%29.91 "Hg9 mi
3:00 AM39 °FOvercast.3 mph75%29.91 "Hg9 mi
2:00 AM39 °FOvercast.7 mph75%29.91 "Hg9 mi
Weather by CustomWeather, © 2015

See weather overviewHow to use our weather pages